Torna al catalogo

STARLINK-35980

AttivoComunicazioniVLEO
NORAD 66600·PAYLOAD·🇺🇸 United States

Lanciato Nov 22, 2025 da Cape Canaveral Space Force Station

Loading…

Prossimi Passaggi (prossime 24 ore)

TLE

AggiornatoSource: CelesTrak SupGP

Epoca: Sep 14, 2026, 21:36 UTC

1 66600C 25270N   26257.90048611  .00050697  00000+0  18367-2 0  2575
2 66600  43.0039  67.9160 0001435 276.3649 303.9064 15.27544959    15

Traccia STARLINK-35980 in tempo reale con AllMySat

Download on the App Store